Wind from 136 at 0 knots gusting 6

Air temperature 6.1° C
Dewpoint 5.7° C

Last reported at 2014-Apr-20 04:48 UTC.
Time now 2014-Apr-20 05:52 UTC

Location: N 43°37' E 010°38'.
View on Google Maps.

See reports from other nearby stations

Tides Stations Pressure Air Temp Water Temp Dewpoint Dewpoint depression Visibility Wind Speed Wind Dir Waves Ship positions

  
sailing weather and tide predictions

IW5EFR Vecchia di Pontedera IT weather

date/time (UTC)wind fromknots sea level pressurealtimeterstation pressurevisibilityair tempwater tempwave heightnotes
2014-Apr-20 04:48 136 0 gusting 6 6.1
2014-Apr-20 04:37 136 4 gusting 6 6.1
2014-Apr-20 04:26 134 2 gusting 4 6.1
2014-Apr-20 04:15 153 2 gusting 4 6.1
2014-Apr-20 03:42 154 1 gusting 6 6.7
2014-Apr-20 03:31 154 2 gusting 7 6.7
2014-Apr-20 03:20 154 0 gusting 6 6.7
2014-Apr-20 03:09 152 4 gusting 5 6.7
2014-Apr-20 02:47 145 3 gusting 4 6.7
2014-Apr-20 02:36 146 1 gusting 6 6.7
2014-Apr-20 02:25 146 5 gusting 5 6.7
2014-Apr-20 01:52 117 3 gusting 4 7.2
2014-Apr-20 01:41 113 1 gusting 1 7.2
2014-Apr-20 01:30 113 3 gusting 3 7.2
2014-Apr-20 01:19 113 7.2
2014-Apr-20 01:08 113 0 gusting 1 7.2
2014-Apr-20 00:46 113 7.8
2014-Apr-20 00:35 113 7.8
2014-Apr-20 00:24 113 8.3
2014-Apr-20 00:13 113 8.3
2014-Apr-20 00:02 113 8.3
2014-Apr-19 23:51 113 8.3
2014-Apr-19 23:40 113 8.9
2014-Apr-19 23:29 113 8.9
2014-Apr-19 23:18 113 9.4
2014-Apr-19 23:07 113 9.4
2014-Apr-19 22:56 113 9.4
2014-Apr-19 22:45 113 9.4
2014-Apr-19 22:34 113 9.4
2014-Apr-19 22:23 113 9.4
2014-Apr-19 22:12 113 9.4
2014-Apr-19 22:01 113 0 gusting 1 9.4
2014-Apr-19 21:50 113 9.4
2014-Apr-19 21:39 113 0 gusting 2 10.0
2014-Apr-19 21:28 113 10.0
2014-Apr-19 21:06 113 10.6
2014-Apr-19 20:55 113 10.6
2014-Apr-19 20:44 113 0 gusting 2 10.6
2014-Apr-19 20:33 113 10.6
2014-Apr-19 20:22 113 0 gusting 1 10.6
2014-Apr-19 20:11 113 10.6
2014-Apr-19 20:00 113 0 gusting 1 11.1
2014-Apr-19 19:49 113 11.1
2014-Apr-19 19:38 113 0 gusting 2 11.1
2014-Apr-19 19:27 113 0 gusting 4 11.1
2014-Apr-19 19:16 113 1 gusting 6 11.1
2014-Apr-19 19:05 109 3 gusting 2 11.1
2014-Apr-19 18:43 099 11.7
2014-Apr-19 18:21 099 11.7
2014-Apr-19 18:10 099 11.7
2014-Apr-19 17:15 099 1 gusting 5 11.7
2014-Apr-19 17:04 099 1 gusting 5 11.7
2014-Apr-19 16:53 096 0 gusting 2 11.7
2014-Apr-19 16:42 076 12.2
2014-Apr-19 16:20 028 1 gusting 4 12.2
2014-Apr-19 16:09 037 1 gusting 4 12.2
2014-Apr-19 15:58 039 0 gusting 10 12.8
2014-Apr-19 15:36 026 2 gusting 7 12.8
2014-Apr-19 15:25 013 7 gusting 6 12.8
2014-Apr-19 15:03 158 4 gusting 6 12.8
2014-Apr-19 14:41 076 2 gusting 6 13.9
2014-Apr-19 14:19 046 1 gusting 4 13.9
2014-Apr-19 14:08 046 1 gusting 5 13.3
2014-Apr-19 13:57 024 0 gusting 8 13.3
2014-Apr-19 13:46 034 1 gusting 4 13.3
2014-Apr-19 13:13 051 0 gusting 10 13.3
2014-Apr-19 12:51 023 7 gusting 9 12.8
2014-Apr-19 12:29 045 2 gusting 8 11.7
2014-Apr-19 11:56 044 11.7
2014-Apr-19 11:45 275 11.7
2014-Apr-19 11:12 355 11.1
2014-Apr-19 11:01 005 11.1
2014-Apr-19 10:39 029 10.6
2014-Apr-19 09:33 005 7 gusting 5 10.6
2014-Apr-19 09:11 027 1 gusting 6 11.1
2014-Apr-19 09:00 031 11.1
2014-Apr-19 08:49 345 0 gusting 10 10.6
2014-Apr-19 08:27 335 5 gusting 9 10.6
2014-Apr-19 08:05 028 2 gusting 7 10.6
2014-Apr-19 07:32 030 3 gusting 5 11.1
2014-Apr-19 07:21 057 1 gusting 11 11.1
2014-Apr-19 07:10 086 0 gusting 9 11.1
2014-Apr-19 06:59 050 3 gusting 8 11.1
2014-Apr-19 06:37 107 2 gusting 13 11.1
2014-Apr-19 06:26 107 8 gusting 18 11.1
2014-Apr-19 06:15 107 7 gusting 16 11.1
2014-Apr-19 05:53 105 10 gusting 14 11.1
2014-Apr-19 05:42 102 14 gusting 14 11.7
2014-Apr-19 05:31 136 7 gusting 12 11.7
2014-Apr-19 05:20 121 8 gusting 13 11.7
2014-Apr-19 05:09 105 6 gusting 10 11.7
2014-Apr-19 04:47 134 5 gusting 13 12.2
2014-Apr-19 04:36 130 6 gusting 19 12.2
2014-Apr-19 04:25 147 4 gusting 14 12.8
2014-Apr-19 04:14 172 9 gusting 11 12.8
2014-Apr-19 03:41 114 7 gusting 10 12.8
2014-Apr-19 03:30 125 6 gusting 7 12.8
2014-Apr-19 03:19 104 3 gusting 8 12.8
2014-Apr-19 03:08 127 4 gusting 6 12.8
2014-Apr-19 02:57 113 6 gusting 6 12.2
2014-Apr-19 02:46 111 1 gusting 6 11.7
2014-Apr-19 02:35 099 11.1
2014-Apr-19 02:02 061 2 gusting 4 11.1
2014-Apr-19 01:51 092 1 11.1
2014-Apr-19 01:40 094 11.1
2014-Apr-19 01:29 094 11.1
2014-Apr-19 01:18 094 1 gusting 4 11.1
2014-Apr-19 01:07 094 11.1
2014-Apr-19 00:45 094 11.7
2014-Apr-19 00:34 094 11.7
2014-Apr-19 00:25 094 12.2
2014-Apr-19 00:12 094 1 gusting 7 12.2
2014-Apr-19 00:01 110 3 gusting 7 12.2
2014-Apr-18 23:39 127 2 gusting 6 11.7
2014-Apr-18 23:28 120 2 gusting 4 11.7
2014-Apr-18 23:17 114 3 gusting 2 11.7
2014-Apr-18 23:06 173 2 gusting 2 11.7
2014-Apr-18 22:55 173 0 gusting 2 11.7
2014-Apr-18 22:44 173 1 11.7
2014-Apr-18 22:33 173 11.7
2014-Apr-18 22:22 173 11.7
2014-Apr-18 22:00 173 1 gusting 4 11.7
2014-Apr-18 21:49 173 1 gusting 4 12.2
2014-Apr-18 21:38 173 1 gusting 5 12.2
2014-Apr-18 21:27 175 0 gusting 5 12.2
2014-Apr-18 21:05 200 12.8
2014-Apr-18 20:54 201 0 gusting 1 12.8
2014-Apr-18 20:43 200 0 gusting 1 12.8
2014-Apr-18 19:59 277 1 gusting 1 13.3
2014-Apr-18 19:15 277 13.9
2014-Apr-18 18:53 277 13.9
2014-Apr-18 18:42 277 14.4
2014-Apr-18 18:31 276 14.4
2014-Apr-18 18:20 277 14.4
2014-Apr-18 17:47 250 3 gusting 9 15.0
2014-Apr-18 17:36 255 3 gusting 8 15.0
2014-Apr-18 17:03 251 2 gusting 8 15.6
2014-Apr-18 16:52 265 3 gusting 8 15.6
2014-Apr-18 16:41 269 2 gusting 11 15.6
2014-Apr-18 16:08 252 3 gusting 11 15.6
2014-Apr-18 15:46 271 2 gusting 10 15.6
2014-Apr-18 15:35 255 6 gusting 9 15.6
2014-Apr-18 15:24 261 2 gusting 13 16.1
2014-Apr-18 15:13 311 7 gusting 11 16.1
2014-Apr-18 15:02 264 6 gusting 11 16.1
2014-Apr-18 14:51 297 5 gusting 10 16.1
2014-Apr-18 14:30 246 6 gusting 9 16.1
2014-Apr-18 14:19 265 3 gusting 12 16.7
2014-Apr-18 14:07 271 2 gusting 13 16.7
2014-Apr-18 13:56 261 6 gusting 13 16.7
2014-Apr-18 13:45 248 6 gusting 15 16.7
2014-Apr-18 13:23 249 3 gusting 12 17.2
2014-Apr-18 13:12 277 10 gusting 13 17.2
2014-Apr-18 13:01 265 5 gusting 13 17.2
2014-Apr-18 12:39 297 6 gusting 13 17.2
2014-Apr-18 12:28 307 7 gusting 13 17.2
2014-Apr-18 12:17 248 6 gusting 11 17.2
2014-Apr-18 12:06 340 4 gusting 9 17.2
2014-Apr-18 11:55 280 7 gusting 13 17.2
2014-Apr-18 11:33 280 3 gusting 11 16.7
2014-Apr-18 11:00 272 4 gusting 10 16.7
2014-Apr-18 10:49 265 3 gusting 13 17.2
2014-Apr-18 10:16 253 6 gusting 11 16.7
2014-Apr-18 10:05 263 7 gusting 13 17.2
2014-Apr-18 09:21 275 6 gusting 8 15.6
2014-Apr-18 09:10 257 3 gusting 6 15.0
2014-Apr-18 08:59 271 6 gusting 4 15.0
2014-Apr-18 08:37 239 14.4
2014-Apr-18 08:26 011 1 gusting 1 13.9
2014-Apr-18 08:15 011 13.3
2014-Apr-18 08:04 011 0 gusting 0 12.8
2014-Apr-18 07:53 011 12.2
2014-Apr-18 07:20 021 10.0
2014-Apr-18 07:09 149 10.0
2014-Apr-18 06:58 149 9.4
2014-Apr-18 06:47 149 0 gusting 2 8.9
2014-Apr-18 06:36 149 8.3
2014-Apr-18 06:25 149 7.8
2014-Apr-18 06:03 149 7.2
2014-Apr-18 05:52 149 7.2
2014-Apr-18 05:41 149 6.7
2014-Apr-18 05:30 149 6.7
2014-Apr-18 05:19 149 6.7
2014-Apr-18 05:08 149 6.1